Weather History for KLGU - November, 2012

Change the Weather History Date:

Friday, November 9, 2012

  Actual Average (KMLD) Record (KMLD)
Temperature  
Mean Temperature 45 °F -  
Max Temperature 60 °F 49 °F - (-1)
Min Temperature 30 °F 25 °F - (-1)
Degree Days  
Heating Degree Days 20    
Moisture  
Dew Point 32 °F    
Average Humidity 92    
Maximum Humidity 100    
Minimum Humidity 33    
Precipitation  
Precipitation 0.44 in - - ()
Sea Level Pressure  
Sea Level Pressure 29.66 in    
Wind  
Wind Speed 10 mph (WNW)    
Max Wind Speed 30 mph    
Max Gust Speed 39 mph    
Visibility 4 miles    
Events Rain , Snow    
Averages and records for this station are not official NWS values.
T = Trace of Precipitation, MM = Missing Value Source: NWS Daily Summary

Daily Weather History Graph

Daily Weather History Graph

Search for Another Location

Airport or City:

Trip Planner

Search our weather history database for the weather conditions in past years. The results will help you decide how hot, cold, wet, or windy it might be!

Date:

Astronomy

Nov. 09, 2012 Rise Set
Actual Time 7:10 AM MST 5:11 PM MST
Civil Twilight 6:40 AM MST 5:41 PM MST
Nautical Twilight 6:07 AM MST 6:14 PM MST
Astronomical Twilight 5:34 AM MST 6:47 PM MST
Moon 2:08 AM MST (11/9) 2:30 PM MST (11/9)
Length of Visible Light 11h 00m
Length of Day
10h 01m
Waning Crescent, 22% of the Moon is Illuminated
Nov 9
Waning Crescent
Nov 13
New
Nov 20
First Quarter
Nov 28
Full
Dec 6
Last Quarter

Hourly Weather History & Observations

Time (MST) Temp. Windchill Dew Point Humidity Pressure Visibility Wind Dir Wind Speed Gust Speed Precip Events Conditions
12:51 AM 57.9 °F - 30.0 °F 35% 29.37 in 10.0 mi South 12.7 mph - N/A   Clear
1:51 AM 60.1 °F - 30.9 °F 33% 29.35 in 10.0 mi South 11.5 mph 24.2 mph N/A   Mostly Cloudy
2:51 AM 46.0 °F 39.6 °F 39.0 °F 76% 29.42 in 9.0 mi WNW 15.0 mph 32.2 mph 0.04 in Rain Rain
3:08 AM 41.0 °F 30.9 °F 37.4 °F 87% 29.56 in 9.0 mi North 24.2 mph 32.2 mph 0.03 in Rain Light Rain
3:51 AM 37.9 °F 25.7 °F 35.1 °F 89% 29.52 in 10.0 mi North 29.9 mph 39.1 mph 0.07 in Rain Light Rain
4:44 AM 33.8 °F 21.0 °F 32.0 °F 93% 29.64 in 4.0 mi North 25.3 mph 34.5 mph 0.05 in Snow Light Snow
5:10 AM 33.8 °F 23.2 °F 32.0 °F 93% 29.66 in 3.0 mi North 17.3 mph 27.6 mph 0.03 in Snow Light Snow
5:15 AM 33.8 °F 23.5 °F 32.0 °F 93% 29.66 in 2.5 mi North 16.1 mph - 0.04 in Snow Light Snow
5:42 AM 33.8 °F 22.8 °F 32.0 °F 93% 29.67 in 2.5 mi North 18.4 mph - 0.08 in Snow Light Snow
5:51 AM 33.1 °F 22.6 °F 32.0 °F 96% 29.65 in 2.5 mi North 16.1 mph - 0.09 in Snow Light Snow
5:56 AM 33.8 °F 23.9 °F 32.0 °F 93% 29.68 in 3.0 mi North 15.0 mph 23.0 mph 0.01 in Snow Light Snow
6:27 AM 33.8 °F 24.8 °F 32.0 °F 93% 29.69 in 5.0 mi NNE 12.7 mph - 0.03 in Snow Light Snow
6:51 AM 34.0 °F 26.0 °F 32.0 °F 92% 29.65 in 6.0 mi North 10.4 mph - 0.05 in Snow Light Snow
7:08 AM 33.8 °F 25.8 °F 32.0 °F 93% 29.69 in 7.0 mi NNE 10.4 mph - 0.01 in Snow Light Snow
7:15 AM 35.6 °F 28.0 °F 32.0 °F 87% 29.71 in 8.0 mi North 10.4 mph - 0.01 in Snow Light Snow
8:10 AM 35.6 °F 29.9 °F 32.0 °F 87% 29.70 in 4.0 mi North 6.9 mph - 0.01 in Snow Light Snow
8:16 AM 33.8 °F - 32.0 °F 93% 29.70 in 5.0 mi Calm Calm - 0.01 in Snow Light Snow
8:34 AM 33.8 °F 27.7 °F 32.0 °F 93% 29.69 in 4.0 mi West 6.9 mph - 0.02 in Snow Light Snow
8:40 AM 33.8 °F 27.0 °F 32.0 °F 93% 29.69 in 2.5 mi West 8.1 mph - 0.02 in Snow Light Snow
8:51 AM 33.1 °F 27.7 °F 32.0 °F 96% 29.65 in 2.0 mi WSW 5.8 mph - 0.02 in Snow Light Snow
9:00 AM 33.8 °F 29.6 °F 32.0 °F 93% 29.69 in 1.8 mi SW 4.6 mph - 0.00 in Snow Light Snow
9:10 AM 33.8 °F 29.6 °F 32.0 °F 93% 29.68 in 2.5 mi SW 4.6 mph - 0.00 in Snow Light Snow
9:15 AM 33.8 °F 29.6 °F 32.0 °F 93% 29.68 in 4.0 mi SW 4.6 mph - 0.00 in Snow Light Snow
9:29 AM 33.8 °F 27.7 °F 32.0 °F 93% 29.69 in 5.0 mi West 6.9 mph - 0.00 in Snow Light Snow
9:36 AM 33.8 °F 30.8 °F 32.0 °F 93% 29.69 in 3.0 mi West 3.5 mph - 0.00 in Snow Light Snow
9:42 AM 33.8 °F 30.8 °F 33.8 °F 100% 29.70 in 2.5 mi SW 3.5 mph - 0.00 in Snow Light Snow
9:51 AM 33.1 °F 27.7 °F 33.1 °F 100% 29.66 in 2.0 mi SW 5.8 mph - 0.01 in Snow Light Snow
9:58 AM 33.8 °F 28.6 °F 32.0 °F 93% 29.71 in 1.8 mi SW 5.8 mph - 0.00 in Snow Light Snow
10:19 AM 33.8 °F 27.7 °F 32.0 °F 93% 29.72 in 2.0 mi SSW 6.9 mph - 0.01 in Snow Light Snow
10:24 AM 33.8 °F 29.6 °F 32.0 °F 93% 29.72 in 2.0 mi South 4.6 mph - 0.02 in Snow Light Snow
10:29 AM 33.8 °F 30.8 °F 32.0 °F 93% 29.71 in 1.5 mi SSE 3.5 mph - 0.02 in Snow Light Snow
10:34 AM 33.8 °F 29.6 °F 32.0 °F 93% 29.71 in 1.2 mi South 4.6 mph - 0.02 in Snow Light Snow
10:51 AM 34.0 °F - 33.1 °F 96% 29.65 in 2.0 mi Calm Calm - 0.03 in Snow Light Snow
11:00 AM 33.8 °F - 33.8 °F 100% 29.70 in 4.0 mi Calm Calm - 0.00 in Snow Light Snow
11:51 AM 34.0 °F 31.0 °F 33.1 °F 96% 29.64 in 9.0 mi SW 3.5 mph - 0.00 in   Overcast
12:21 PM 35.6 °F 31.7 °F 33.8 °F 93% 29.68 in 10.0 mi WSW 4.6 mph - 0.00 in   Overcast
12:51 PM 35.1 °F - 33.1 °F 92% 29.62 in 7.0 mi Calm Calm - 0.00 in   Overcast
1:42 PM 35.6 °F 32.8 °F 33.8 °F 93% 29.63 in 10.0 mi NNE 3.5 mph - 0.01 in   Overcast
1:48 PM 35.6 °F - 33.8 °F 93% 29.64 in 10.0 mi Calm Calm - 0.01 in   Overcast
1:51 PM 36.0 °F - 33.1 °F 89% 29.60 in 10.0 mi Calm Calm - 0.01 in   Overcast
2:25 PM 35.6 °F 32.8 °F 33.8 °F 93% 29.64 in 10.0 mi WNW 3.5 mph - 0.00 in   Overcast
2:30 PM 35.6 °F 30.7 °F 33.8 °F 93% 29.63 in 10.0 mi WNW 5.8 mph - 0.00 in   Overcast
2:39 PM 35.6 °F 30.7 °F 33.8 °F 93% 29.64 in 8.0 mi WNW 5.8 mph - 0.01 in Snow Light Snow
2:46 PM 35.6 °F 30.7 °F 33.8 °F 93% 29.64 in 6.0 mi WNW 5.8 mph - 0.01 in Rain Light Rain
2:51 PM 36.0 °F 31.1 °F 34.0 °F 93% 29.62 in 8.0 mi WNW 5.8 mph - 0.01 in Rain Light Rain
3:33 PM 35.6 °F 29.9 °F 33.8 °F 93% 29.63 in 9.0 mi North 6.9 mph - 0.01 in   Overcast
3:51 PM 35.1 °F 27.4 °F 32.0 °F 89% 29.64 in 7.0 mi North 10.4 mph - 0.01 in Snow Light Snow
4:07 PM 35.6 °F 27.1 °F 32.0 °F 87% 29.63 in 8.0 mi North 12.7 mph - 0.00 in Snow Light Snow
4:12 PM 35.6 °F 27.1 °F 32.0 °F 87% 29.63 in 5.0 mi North 12.7 mph - 0.00 in Snow Light Snow
4:26 PM 33.8 °F 25.8 °F 32.0 °F 93% 29.64 in 1.8 mi NNW 10.4 mph - 0.01 in Snow Light Snow
4:51 PM 33.1 °F 28.7 °F 32.0 °F 96% 29.66 in 1.0 mi NW 4.6 mph - 0.02 in Snow Light Snow
4:56 PM 33.8 °F 27.7 °F 32.0 °F 93% 29.64 in 1.2 mi NW 6.9 mph - 0.00 in Snow Light Snow
5:09 PM 33.8 °F 26.4 °F 30.2 °F 87% 29.65 in 2.5 mi NW 9.2 mph - 0.01 in Snow Light Snow
5:49 PM 32.0 °F 24.2 °F 30.2 °F 93% 29.66 in 1.8 mi NNW 9.2 mph - 0.02 in Snow Light Snow
5:51 PM 32.0 °F 24.2 °F 30.9 °F 96% 29.69 in 1.8 mi NNW 9.2 mph - 0.02 in Snow Light Snow
6:09 PM 32.0 °F 24.2 °F 30.2 °F 93% 29.66 in 1.5 mi North 9.2 mph - 0.01 in Snow Light Snow
6:14 PM 32.0 °F 24.2 °F 30.2 °F 93% 29.66 in 2.0 mi North 9.2 mph - 0.01 in Snow Light Snow
6:29 PM 32.0 °F 25.6 °F 30.2 °F 93% 29.67 in 2.0 mi North 6.9 mph - 0.01 in Snow Light Snow
6:51 PM 32.0 °F 24.2 °F 30.0 °F 92% 29.70 in 2.5 mi NW 9.2 mph - 0.02 in Snow Light Snow
7:05 PM 32.0 °F 24.8 °F 30.2 °F 93% 29.68 in 1.8 mi NW 8.1 mph - 0.00 in Snow Light Snow
7:14 PM 32.0 °F 24.8 °F 30.2 °F 93% 29.68 in 2.0 mi NW 8.1 mph - 0.00 in Snow Light Snow
7:32 PM 30.2 °F 24.3 °F 30.2 °F 100% 29.68 in 1.5 mi NW 5.8 mph - 0.00 in Snow Light Snow
7:40 PM 30.2 °F 23.4 °F 30.2 °F 100% 29.68 in 1.5 mi WNW 6.9 mph - 0.01 in Snow Light Snow
7:49 PM 30.2 °F 24.3 °F 30.2 °F 100% 29.69 in 1.2 mi NW 5.8 mph - 0.01 in Snow Light Snow
7:51 PM 30.9 °F 25.2 °F 30.0 °F 96% 29.72 in 1.2 mi NW 5.8 mph - 0.01 in Snow Light Snow
8:14 PM 30.2 °F 25.4 °F 30.2 °F 100% 29.69 in 2.0 mi NW 4.6 mph - 0.01 in Snow Light Snow
8:49 PM 30.2 °F 25.4 °F 30.2 °F 100% 29.69 in 1.8 mi WNW 4.6 mph - 0.02 in Snow Light Snow
8:51 PM 30.9 °F 26.2 °F 30.0 °F 96% 29.73 in 2.0 mi West 4.6 mph - 0.02 in Snow Light Snow
9:07 PM 30.2 °F 25.4 °F 30.2 °F 100% 29.70 in 3.0 mi West 4.6 mph - 0.00 in Snow Light Snow
9:12 PM 30.2 °F 26.7 °F 30.2 °F 100% 29.70 in 5.0 mi WNW 3.5 mph - 0.00 in Snow Light Snow
9:22 PM 30.2 °F 26.7 °F 30.2 °F 100% 29.70 in 3.0 mi WNW 3.5 mph - 0.00 in Snow Light Snow
9:28 PM 30.2 °F - 30.2 °F 100% 29.70 in 2.0 mi Calm Calm - 0.00 in Snow Light Snow
9:51 PM 30.9 °F - 28.9 °F 92% 29.73 in 3.0 mi Calm Calm - 0.00 in Snow Light Snow
10:32 PM 30.2 °F 26.7 °F 30.2 °F 100% 29.70 in 3.0 mi SW 3.5 mph - 0.01 in Snow Light Snow
10:37 PM 30.2 °F 25.4 °F 30.2 °F 100% 29.70 in 3.0 mi SW 4.6 mph - 0.01 in Snow Light Snow
10:51 PM 30.9 °F 27.5 °F 30.0 °F 96% 29.72 in 4.0 mi SW 3.5 mph - 0.01 in Snow Light Snow
11:00 PM 30.2 °F 26.7 °F 28.4 °F 93% 29.69 in 2.5 mi SW 3.5 mph - 0.00 in Snow Light Snow
11:15 PM 30.2 °F 26.7 °F 28.4 °F 93% 29.69 in 4.0 mi WSW 3.5 mph - 0.00 in Snow Light Snow
11:51 PM 30.0 °F 26.5 °F 28.9 °F 96% 29.72 in 6.0 mi SW 3.5 mph - 0.00 in   Overcast